DW3478 Weather Reports


time (UTC)temp
C
wind
direction
speed
KPH
gust
KPH
rain 1hr
cm
rain 24hr
cm
rain mn
cm
humidity
%
barometer
mb
20260508095307 14 279 3.2 19.3 0.03 0.38 0.38 91 1004.8
20260508094305 13 280 3.2 16.1 0.00 0.36 0.36 93 1005.0
20260508092805 13 301 4.8 9.7 0.00 0.36 0.36 94 1005.0
20260508091304 13 284 1.6 4.8 0.00 0.36 0.36 94 1004.7
20260508090805 13 269 3.2 8.0 0.00 0.36 0.36 93 1004.8
20260508085806 13 289 4.8 16.1 0.05 0.36 0.36 93 1004.9
20260508084805 12 294 3.2 8.0 0.08 0.36 0.36 93 1005.0
20260508083305 12 302 3.2 14.5 0.08 0.36 0.36 93 1004.3
20260508082306 12 309 3.2 8.0 0.08 0.36 0.36 92 1004.5
20260508081806 12 276 4.8 20.9 0.08 0.36 0.36 92 1004.8
20260508081306 12 315 4.8 16.1 0.08 0.36 0.36 92 1004.9
20260508071805 13 309 11.3 27.4 0.00 0.28 0.28 93 1004.4
20260508065805 12 308 4.8 14.5 0.00 0.28 0.28 94 1004.5
20260508064305 12 307 3.2 8.0 0.00 0.28 0.28 94 1004.4
20260508063805 12 304 3.2 16.1 0.00 0.28 0.28 94 1004.4
20260508060804 12 286 4.8 19.3 0.00 0.28 0.28 95 1004.5
20260508060304 12 274 3.2 16.1 0.00 0.28 0.28 95 1004.3
20260508055805 12 260 4.8 11.3 0.00 0.28 0.28 95 1004.3
20260508053804 12 319 4.8 11.3 0.00 0.28 0.28 95 1004.4
20260508053305 12 280 3.2 11.3 0.03 0.28 0.28 95 1004.1
20260508052805 12 303 3.2 11.3 0.05 0.28 0.28 95 1004.3
20260508052307 12 299 1.6 9.7 0.05 0.28 0.28 95 1004.3
20260508045307 13 218 3.2 4.8 0.05 0.28 0.28 95 1003.6
20260508044805 13 275 4.8 8.0 0.05 0.28 0.28 95 1003.8
20260508044305 13 292 4.8 19.3 0.10 0.28 0.28 95 1003.5
20260508043804 13 289 3.2 8.0 0.20 0.28 0.28 95 1003.4
20260508043305 13 234 1.6 11.3 0.23 0.25 0.25 95 1003.2
20260508042307 13 297 3.2 16.1 0.20 0.23 0.23 95 1003.0
20260508041805 13 300 1.6 4.8 0.20 0.23 0.23 95 1003.1
20260508040305 13 296 3.2 8.0 0.20 0.23 0.23 95 1004.5
20260508033305 13 283 6.4 16.1 0.00 0.03 0.03 94 1004.1
20260508032805 14 268 11.3 37.0 0.00 0.03 0.03 94 1003.9
20260508031805 14 268 11.3 25.7 0.00 0.03 0.03 94 1004.2
20260508031306 14 225 16.1 38.6 0.00 0.03 0.03 94 1003.6
20260508025306 13 254 14.5 24.1 0.00 0.03 0.03 94 1005.1
20260508024805 13 229 11.3 22.5 0.00 0.03 0.03 94 1005.1
20260508024306 13 249 16.1 24.1 0.00 0.03 0.03 94 1005.1
20260508022805 13 233 9.7 24.1 0.00 0.03 0.03 93 1005.6
20260508022307 13 256 12.9 24.1 0.00 0.03 0.03 93 1005.7
20260508021305 13 227 14.5 27.4 0.00 0.03 0.03 93 1005.8
20260508020805 13 252 12.9 25.7 0.00 0.03 0.03 93 1005.9
20260508020305 13 240 14.5 20.9 0.00 0.03 0.03 93 1005.9
20260508014805 13 269 11.3 20.9 0.00 0.03 0.03 91 1006.0
20260508014304 13 265 14.5 25.7 0.00 0.03 0.03 91 1006.5
20260508013805 13 254 17.7 33.8 0.00 0.03 0.03 90 1006.7
20260508010305 14 275 11.3 19.3 0.00 0.03 0.03 87 1006.7
20260508005805 14 269 14.5 25.7 0.00 0.03 0.03 87 1006.9
20260508005306 14 257 8.0 20.9 0.00 0.03 0.03 87 1006.8
20260508004304 14 258 8.0 20.9 0.03 0.03 0.03 87 1006.6
20260508003805 14 207 11.3 20.9 0.03 0.03 0.03 86 1007.1
20260508002804 14 262 9.7 24.1 0.03 0.03 0.03 87 1007.3
20260508002306 14 218 11.3 24.1 0.03 0.03 0.03 87 1007.3
20260508001805 14 270 9.7 29.0 0.03 0.03 0.03 87 1007.0
20260508001304 14 278 9.7 19.3 0.03 0.03 0.03 86 1007.4
20260508000805 14 272 8.0 24.1 0.03 0.03 0.03 86 1007.6
20260508000305 14 271 12.9 20.9 0.03 0.03 0.03 87 1007.6
20260507235805 14 254 8.0 19.3 0.03 0.03 0.03 86 1007.4
20260507235307 14 222 17.7 25.7 0.03 0.03 0.03 86 1007.4
20260507234804 14 208 11.3 22.5 0.00 0.00 0.00 84 1007.6
20260507233805 14 241 11.3 19.3 0.00 0.00 0.00 85 1007.4
20260507233305 14 203 6.4 16.1 0.00 0.00 0.00 84 1007.4
20260507232306 14 221 16.1 16.1 0.00 0.00 0.00 85 1007.7
20260507231805 14 226 8.0 16.1 0.00 0.00 0.00 85 1007.9
20260507231304 14 224 6.4 14.5 0.00 0.00 0.00 84 1007.8
20260507230805 14 226 6.4 14.5 0.00 0.00 0.00 84 1008.0
20260507224804 14 162 6.4 9.7 0.00 0.00 0.00 81 1008.1
20260507224305 14 155 4.8 12.9 0.00 0.00 0.00 80 1007.6
20260507222804 14 136 3.2 4.8 0.00 0.00 0.00 80 1008.1
20260507222306 14 148 3.2 4.8 0.00 0.00 0.00 80 1007.9
20260507221304 14 195 4.8 8.0 0.00 0.00 0.00 79 1008.5
20260507220805 14 199 1.6 4.8 0.00 0.00 0.00 78 1008.5
20260507220304 14 197 4.8 8.0 0.00 0.00 0.00 78 1008.6
20260507215306 15 188 1.6 4.8 0.00 0.00 0.00 78 1008.6
20260507214805 15 222 3.2 4.8 0.00 0.00 0.00 77 1008.6
20260507212307 14 144 3.2 4.8 0.00 0.00 0.00 75 1008.6
20260507211804 14 195 1.6 4.8 0.00 0.00 0.00 75 1008.7
20260507211305 14 195 4.8 4.8 0.00 0.00 0.00 75 1008.7
20260507204804 14 233 3.2 4.8 0.00 0.00 0.00 72 1008.8
20260507204304 14 222 4.8 4.8 0.00 0.00 0.00 71 1008.9
20260507203804 14 255 4.8 8.0 0.00 0.00 0.00 71 1008.8
20260507203305 14 274 4.8 8.0 0.00 0.00 0.00 71 1008.9
20260507200804 14 259 3.2 4.8 0.00 0.00 0.00 69 1008.8
20260507200305 15 218 3.2 4.8 0.00 0.00 0.00 69 1008.8
20260507194804 15 220 3.2 4.8 0.00 0.00 0.00 68 1008.7
20260507194305 15 245 3.2 4.8 0.00 0.00 0.00 68 1008.8
20260507193805 15 239 3.2 4.8 0.00 0.00 0.00 67 1008.8
20260507191804 15 250 4.8 8.0 0.00 0.00 0.00 66 1008.8
20260507191304 15 250 6.4 11.3 0.00 0.00 0.00 67 1008.8
20260507190805 15 260 3.2 8.0 0.00 0.00 0.00 64 1008.8
20260507185306 16 230 4.8 8.0 0.00 0.00 0.00 65 1008.8
20260507184805 16 279 8.0 11.3 0.00 0.00 0.00 64 1008.8
20260507183304 16 286 8.0 12.9 0.00 0.00 0.00 66 1008.9
20260507182805 15 291 6.4 9.7 0.00 0.00 0.00 68 1008.9
20260507182307 16 277 6.4 14.5 0.00 0.00 0.00 67 1008.9
20260507180805 16 280 4.8 11.3 0.00 0.00 0.00 69 1009.0
20260507180304 16 276 8.0 16.1 0.00 0.00 0.00 67 1009.0
20260507175805 15 315 9.7 12.9 0.00 0.00 0.00 67 1008.9
20260507174804 15 290 6.4 14.5 0.00 0.00 0.00 67 1008.9
20260507174305 16 294 6.4 14.5 0.00 0.00 0.00 69 1009.0
20260507173804 16 231 3.2 9.7 0.00 0.00 0.00 69 1009.0
20260507173304 16 281 8.0 11.3 0.00 0.00 0.00 67 1009.0
20260507172804 16 282 8.0 16.1 0.00 0.00 0.00 66 1009.0
20260507170804 16 271 8.0 14.5 0.00 0.00 0.00 66 1009.0
20260507170305 16 258 8.0 12.9 0.00 0.00 0.00 66 1008.9
20260507165805 17 286 8.0 16.1 0.00 0.00 0.00 63 1008.6
20260507165306 17 286 8.0 11.3 0.00 0.00 0.00 64 1009.0
20260507164805 17 286 11.3 14.5 0.00 0.00 0.00 63 1009.1
20260507161804 16 247 6.4 11.3 0.00 0.00 0.00 65 1009.2
20260507161305 16 243 9.7 14.5 0.00 0.00 0.00 64 1009.3
20260507155306 17 274 6.4 11.3 0.00 0.00 0.00 66 1009.3
20260507154805 17 270 11.3 19.3 0.00 0.00 0.00 66 1009.4
20260507154305 17 302 9.7 16.1 0.00 0.00 0.00 65 1009.3
20260507153304 16 229 9.7 14.5 0.00 0.00 0.00 67 1009.1
20260507152805 16 226 9.7 16.1 0.00 0.00 0.00 67 1009.0
20260507152306 16 205 8.0 11.3 0.00 0.00 0.00 66 1009.0
20260507151805 16 189 4.8 8.0 0.00 0.00 0.00 68 1008.9
20260507144306 15 117 4.8 9.7 0.00 0.00 0.00 67 1009.0
20260507143805 15 118 6.4 9.7 0.00 0.00 0.00 68 1009.2
20260507143306 15 182 3.2 8.0 0.00 0.00 0.00 68 1009.6
20260507140805 15 295 4.8 11.3 0.00 0.00 0.00 63 1010.3
20260507140306 15 311 4.8 11.3 0.00 0.00 0.00 62 1010.2
20260507132307 15 285 3.2 4.8 0.00 0.00 0.00 62 1010.6
20260507130805 16 297 3.2 4.8 0.00 0.00 0.00 62 1010.8
20260507130305 16 287 3.2 8.0 0.00 0.00 0.00 62 1010.9
20260507125806 16 294 1.6 3.2 0.00 0.00 0.00 65 1011.1
20260507124305 16 286 3.2 4.8 0.00 0.00 0.00 56 1011.4
20260507122805 16 292 6.4 11.3 0.00 0.00 0.00 57 1011.3
20260507120805 16 287 3.2 9.7 0.00 0.00 0.00 57 1011.6
20260507120306 16 302 8.0 16.1 0.00 0.00 0.00 56 1011.5
20260507115805 16 282 6.4 9.7 0.00 0.00 0.00 58 1011.5
20260507115307 16 296 9.7 19.3 0.00 0.00 0.00 57 1011.6
20260507114805 17 273 6.4 16.1 0.00 0.00 0.00 56 1011.4
20260507113805 17 285 3.2 8.0 0.00 0.00 0.00 58 1011.5
20260507111305 18 306 6.4 19.3 0.00 0.00 0.00 60 1011.5
20260507110805 18 293 3.2 14.5 0.00 0.00 0.00 59 1011.4
20260507105307 17 286 4.8 11.3 0.00 0.00 0.00 60 1011.1
20260507104805 17 290 4.8 20.9 0.00 0.00 0.00 63 1011.4
20260507104306 17 291 4.8 16.1 0.00 0.00 0.00 64 1011.3
20260507101306 17 288 6.4 11.3 0.00 0.00 0.00 64 1011.3